Regional Weather Roundup
Issued by NWS Green Bay, WI

Home | Current Version | Previous Version | Text Only | Print | Product List | Glossary On
Versions: 1 2 3 4 5 6 7 8 9 10 11 12 13 14 15 16 17 18 19 20 21 22 23 24 25 26 27 28 29 30 31 32 33 34 35 36 37 38 39 40 41 42 43 44 45 46 47 48 49 50
000
ASUS43 KGRB 150611
RWRGRB

NORTH-CENTRAL AND NORTHEAST WISCONSIN REGIONAL WEATHER ROUNDUP
NATIONAL WEATHER SERVICE GREEN BAY WI
1200 AM CST FRI DEC 15 2017

WIZ005-009-010>012-018-019-150700-
NORTH CENTRAL WISCONSIN

CITY           SKY/WX    TMP DP  RH WIND       PRES   REMARKS
IRONWOOD       LGT SNOW  15  12  88 W13       29.82F FOG     WCI   1
MANITOWISH WTR LGT SNOW  14  13  96 W5        29.80F WCI   6
ARBOR VITAE    LGT SNOW  17  14  88 W5        29.80F WCI  10
EAGLE RIVER    LGT SNOW  15  10  83 W8        29.79F WCI   3
LAND O LAKES   LGT SNOW  15  13  88 CALM      29.80F VSB 1
RHINELANDER    LGT SNOW  15  13  91 W8        29.81F FOG     WCI   4
PHILLIPS       FLURRIES  15  13  91 W3        29.83F
ANTIGO         FLURRIES  16  13  88 W8        29.83F WCI   5
TOMAHAWK       LGT SNOW  16  13  88 W3        29.84F
MERRILL        FLURRIES  17  14  86 W8        29.86F WCI   7
$$

WIZ013-073-150700-
NORTHEAST WISCONSIN

CITY           SKY/WX    TMP DP  RH WIND       PRES   REMARKS
IRON MOUNTAIN  LGT SNOW  17  13  84 VRB3      29.80F FOG
MARINETTE      LGT SNOW  20  17  88 SW9       29.88F FOG     WCI   9
OCONTO         CLOUDY    20  17  86 SW6       29.89F
$$

WIZ017-030-035>037-045-150700-
CENTRAL WISCONSIN

CITY           SKY/WX    TMP DP  RH WIND       PRES   REMARKS
MEDFORD        LGT SNOW  16  12  85 W8        29.84F WCI   5
WAUSAU         LGT SNOW  18  14  84 W12       29.85F FOG     WCI   5
MOSINEE        FLURRIES  19  18  93 W10       29.87F WCI   8
MARSHFIELD     FLURRIES  18  13  80 W10       29.87F WCI   6
WISC RAPIDS    CLOUDY    21  14  74 W8        29.92F
STEVENS POINT  LGT SNOW  18  17  95 W6        29.88F
WAUPACA        LGT SNOW  23  18  80 SW8       29.91F
SHAWANO        FLURRIES  22  18  82 SW7       29.89F
CLINTONVILLE   NOT AVBL
WAUTOMA        FLURRIES  22  15  75 W9        29.92F
$$

WIZ038-039-048-051-150700-
FOX VALLEY

CITY           SKY/WX    TMP DP  RH WIND       PRES   REMARKS
NWS GREEN BAY  LGT SNOW  21  17  84 SW7       29.90F FOG
APPLETON       FLURRIES  21  14  73 SW6       29.88F
OSHKOSH        CLOUDY    21  15  78 SW8       29.91F
FOND DU LAC    CLOUDY    23  12  62 SW7       29.92F
$$

WIZ022-050-052-150700-
EAST CENTRAL WISCONSIN

CITY           SKY/WX    TMP DP  RH WIND       PRES   REMARKS
EPHRAIM        FLURRIES  22  16  77 W9        29.85F
WASHINGTON ISL LGT SNOW  22  19  85 W13       29.86F
STURGEON BAY   FLURRIES  19  16  88 S9        29.89F WCI   8
MANITOWOC      FLURRIES  20  14  77 SW8       29.93F
SHEBOYGAN      CLOUDY    19  13  77 S8        29.92F WCI   9
$$

LMZ563-521-522-541>543-150700-
LAKESHORE

STATION/POSITION TIME  TEMP    WIND        PRES    VSBY  WAVE
                       AIR SEA DIR/SP/G                  HT/PER
                 (UTC) (F)     (DEG/KT/KT) (MB)    (MI)  (FT/S)
SHEBOYGAN LKSHOR 0600   22     210/ 10/ 12 1014.6F
KEWAUNEE LKSHORE 0548          220/  7/ 10 1012.3F
NORTHPORT PIER   0540   22      CALM  /  5 1011.9F
MENOMINEE LKSHOR 0548          210/  9/ 12 1011.6F
$$




USA.gov is the U.S. government's official web portal to all federal, state and local government web resources and services.